| time (UTC) | temp F | wind direction | speed MPH | gust MPH | rain 1hr in | rain 24hr in | rain mn in | humidity % | barometer mb |
| 20260507110042 | 85 | 315 | 6.0 | 10.0 | 0.00 | 0.01 | 0.01 | 31 | 999.6 |
| 20260507103042 | 83 | 315 | 5.0 | 10.0 | 0.00 | 0.01 | 0.01 | 32 | 1000.0 |
| 20260507100042 | 82 | 315 | 5.0 | 10.0 | 0.00 | 0.01 | 0.01 | 36 | 1000.5 |
| 20260507093041 | 80 | 315 | 5.0 | 10.0 | 0.00 | 0.01 | 0.01 | 41 | 1000.7 |
| 20260507090041 | 76 | 315 | 5.0 | 8.0 | 0.00 | 0.01 | 0.01 | 47 | 1001.0 |
| 20260507080413 | 71 | 315 | 5.0 | 9.0 | 0.00 | 0.01 | 0.01 | 57 | 1001.4 |
| 20260507073414 | 71 | 315 | 5.0 | 8.0 | 0.00 | 0.01 | 0.01 | 57 | 1001.3 |
| 20260507070041 | 70 | 225 | 4.0 | 8.0 | 0.00 | 0.01 | 0.01 | 62 | 1001.1 |
| 20260507063041 | 67 | 293 | 3.0 | 11.0 | 0.01 | 0.01 | 0.01 | 65 | 1001.2 |
| 20260507060041 | 62 | 248 | 6.0 | 18.0 | 0.01 | 0.01 | 0.01 | 69 | 1001.0 |
| 20260507053041 | 63 | 248 | 6.0 | 10.0 | 0.00 | 0.00 | 0.00 | 62 | 1001.5 |
| 20260507050042 | 64 | 203 | 5.0 | 10.0 | 0.00 | 0.00 | 0.00 | 61 | 1001.6 |
| 20260507043041 | 62 | 203 | 4.0 | 9.0 | 0.00 | 0.00 | 0.00 | 61 | 1001.3 |
| 20260507040041 | 58 | 90 | 4.0 | 11.0 | 0.00 | 0.00 | 0.00 | 69 | 1001.8 |
| 20260507033040 | 56 | 270 | 2.0 | 13.0 | 0.00 | 0.00 | 0.00 | 74 | 1001.1 |
| 20260507030041 | 53 | 270 | 1.0 | 4.0 | 0.00 | 0.00 | 0.00 | 79 | 1000.3 |
| 20260507023041 | 52 | 315 | 3.0 | 7.0 | 0.00 | 0.00 | 0.00 | 77 | 1000.3 |
| 20260507020046 | 51 | 315 | 6.0 | 9.0 | 0.00 | 0.00 | 0.00 | 78 | 999.9 |
| 20260507013041 | 51 | 315 | 6.0 | 9.0 | 0.00 | 0.00 | 0.00 | 77 | 999.8 |
| 20260507010040 | 51 | 315 | 6.0 | 9.0 | 0.00 | 0.00 | 0.00 | 77 | 999.8 |
| 20260507003101 | 52 | 293 | 5.0 | 8.0 | 0.00 | 0.00 | 0.00 | 76 | 999.8 |
| 20260507000101 | 52 | 293 | 4.0 | 6.0 | 0.00 | 0.00 | 0.00 | 76 | 999.7 |
| 20260506233041 | 52 | 293 | 3.0 | 5.0 | 0.00 | 0.00 | 0.00 | 75 | 999.6 |
| 20260506223041 | 55 | 270 | 1.0 | 4.0 | 0.00 | 0.00 | 0.00 | 71 | 999.7 |
| 20260506220040 | 54 | 270 | 1.0 | 4.0 | 0.00 | 0.00 | 0.00 | 75 | 999.7 |
| 20260506213042 | 54 | 270 | 1.0 | 4.0 | 0.00 | 0.00 | 0.00 | 75 | 999.7 |
| 20260506210413 | 54 | 270 | 1.0 | 4.0 | 0.00 | 0.00 | 0.00 | 74 | 999.6 |
| 20260506203041 | 56 | 270 | 1.0 | 4.0 | 0.00 | 0.00 | 0.00 | 71 | 999.4 |
| 20260506200041 | 57 | 270 | 1.0 | 2.0 | 0.00 | 0.00 | 0.00 | 66 | 999.3 |
| 20260506193041 | 56 | 270 | 1.0 | 3.0 | 0.00 | 0.00 | 0.00 | 70 | 999.2 |
| 20260506190432 | 57 | 270 | 1.0 | 4.0 | 0.00 | 0.00 | 0.00 | 69 | 999.2 |
| 20260506183041 | 56 | 0.0 | 4.0 | 0.00 | 0.00 | 0.00 | 73 | 999.3 | |
| 20260506180100 | 57 | 270 | 1.0 | 2.0 | 0.00 | 0.00 | 0.00 | 70 | 999.2 |
| 20260506173040 | 59 | 0.0 | 3.0 | 0.00 | 0.00 | 0.00 | 64 | 999.0 | |
| 20260506170040 | 63 | 270 | 1.0 | 4.0 | 0.00 | 0.00 | 0.00 | 58 | 999.0 |
| 20260506163040 | 65 | 270 | 1.0 | 3.0 | 0.00 | 0.00 | 0.00 | 57 | 998.7 |
| 20260506160041 | 71 | 270 | 1.0 | 4.0 | 0.00 | 0.00 | 0.00 | 52 | 998.6 |
| 20260506153040 | 75 | 293 | 1.0 | 3.0 | 0.00 | 0.00 | 0.00 | 46 | 998.5 |
| 20260506150040 | 78 | 338 | 1.0 | 3.0 | 0.00 | 0.00 | 0.00 | 42 | 998.5 |
| 20260506143040 | 79 | 315 | 1.0 | 7.0 | 0.00 | 0.00 | 0.00 | 31 | 998.5 |
| 20260506140040 | 78 | 315 | 3.0 | 9.0 | 0.00 | 0.00 | 0.00 | 37 | 998.5 |
| 20260506133042 | 79 | 315 | 4.0 | 7.0 | 0.00 | 0.00 | 0.00 | 36 | 998.6 |
| 20260506130042 | 79 | 315 | 4.0 | 9.0 | 0.00 | 0.00 | 0.00 | 30 | 998.8 |
| 20260506123042 | 80 | 293 | 2.0 | 6.0 | 0.00 | 0.00 | 0.00 | 29 | 998.9 |
| 20260506120041 | 78 | 293 | 2.0 | 5.0 | 0.00 | 0.00 | 0.00 | 30 | 999.2 |
| 20260506113041 | 79 | 315 | 4.0 | 11.0 | 0.00 | 0.00 | 0.00 | 31 | 999.3 |